Regional Weather Roundup
Issued by NWS

Home | Current Version | Previous Version | Text Only | Print | Product List | Glossary On
Versions: 1 2 3 4 5 6 7 8 9 10 11 12 13 14 15 16 17 18 19 20 21 22 23 24 25 26 27 28 29 30 31 32 33 34 35 36 37 38 39 40 41 42 43 44 45 46 47 48 49 50
000
ASUS42 KTBW 311518
RWRFL
FLORIDA REGIONAL WEATHER ROUNDUP
NATIONAL WEATHER SERVICE TAMPA BAY RUSKIN FL
1100 AM EDT MON AUG 31 2015

NOTE: "FAIR" INDICATES FEW OR NO CLOUDS BELOW 12,000 FEET WITH NO
SIGNIFICANT WEATHER AND/OR OBSTRUCTIONS TO VISIBILITY.


FLZ001>010-012>015-112-114-115-311600-
PANHANDLE FLORIDA

CITY           SKY/WX    TMP DP  RH WIND       PRES   REMARKS
PENSACOLA      SUNNY     84  69  60 NE5       30.08R
PENSACOLA NAS  MOSUNNY   86  72  62 NE5       30.08R
MILTON NAS     MOSUNNY   83  70  64 CALM      30.09
CRESTVIEW      SUNNY     85  68  56 NE3       30.10R
DUKE FIELD     MOSUNNY   85  68  55 N5        30.07R
VALPARAISO     MOSUNNY   86  68  55 NE2       30.07R
MARY ESTHER    SUNNY     85  68  56 N2        30.06R
TRI COUNTY     FAIR      83  73  72 CALM      30.10R
PANAMA CITY    FAIR      86  71  60 CALM      30.07R
TYNDALL AFB    SUNNY     85  74  70 N7        30.06R
APALACHICOLA   SUNNY     87  76  69 SE5       30.05R HX  97

STATION/POSITION SKY/WX   TEMP    WIND        PRES    WAVE   SWELL
                          AIR SEA DIR/SP/G            HT/PER HT/PER
                          (F)     (DEG/KT/KT) (MB)    (FT/S) (FT/S)
30.1N   87.6W              81 85  360/  8/ 10 1017.9R   1/ 5
29.2N   88.2W              82 86   20/  6/  8 1018.6R   1/ 5   2/ 5
28.8N   86.0W              85 86   10/  8/ 10 1017.6R   1/ 5   2/ 5
PANAMA CITY BEAC NOT AVBL
CAPE SAN BLAS    NOT AVBL
TOWER C                    83      30/  9/ 10 1017.6R
28.5N   84.5W              85 86   50/  6/  6 1017.1R   1/ 6   2/ 6

$$
FLZ011-016>038-118-127-128-134-139-239-311600-
NORTH FLORIDA

CITY           SKY/WX    TMP DP  RH WIND       PRES   REMARKS
MARIANNA       CLOUDY    78  74  87 N3        30.09R
TALLAHASSEE    CLOUDY    80  73  79 VRB5      30.08R
PERRY          CLOUDY   N/A N/A N/A N7        30.09R
CROSS CITY       N/A     80  76  87 NE3       30.07R
LAKE CITY      CLOUDY    79  75  89 N3        30.09R
GAINESVILLE    PTSUNNY   82  74  76 CALM      30.08R
MAYPORT NAS    PTSUNNY   80  75  84 W6        30.08R
JACKSONVILLE   PTSUNNY   81  75  82 VRB3      30.07R
JAX NAS        CLOUDY    82  74  76 CALM      30.09R
JAX CRAIG      PTSUNNY   81  74  79 W3        30.08R
JAX CECIL      PTSUNNY   81  77  89 CALM      30.08R
FERNANDINA BEA FAIR      86  75  70 W5        30.07R HX  95
ST AUGUSTINE   PTSUNNY   83  77  82 S6        30.09R

STATION/POSITION SKY/WX   TEMP    WIND        PRES    WAVE   SWELL
                          AIR SEA DIR/SP/G            HT/PER HT/PER
                          (F)     (DEG/KT/KT) (MB)    (FT/S) (FT/S)
SHELL POINT      NOT AVBL
KEATON BEACH               76      50/  5/  7 1018.5R
CEDAR KEY                  81     110/  8/  9 1018.2R
FERNANDINA       NOT AVBL
MAYPORT          NOT AVBL
31.4N   80.9W              80 84  330/  8/ 12 1018.3R   4/ 7   3/ 7
ST AUGUSTINE               81 84  140/  2/  3 1019.4R

$$
FLZ040-043>046-052-053-057-058-063-144-311600-
INTERIOR CENTRAL FLORIDA

CITY           SKY/WX    TMP DP  RH WIND       PRES   REMARKS
OCALA          MOSUNNY   79  75  89 S6        30.08R
THE VILLAGES     N/A     82  77  83 SE6       29.98R
LEESBURG       CLOUDY    81  76  84 S5        30.08R
SANFORD        CLOUDY    84  73  69 S9        30.07R
ORLANDO EXEC   CLOUDY    83  77  82 S7        30.08R
ORLANDO INTL   CLOUDY    82  75  79 SE6       30.08R
KISSIMMEE      CLOUDY    82  77  83 SE7       30.08R
WINTER HAVEN   CLOUDY    83  76  79 SE8       30.08R
LAKELAND       MOSUNNY   81  75  83 SE8       30.07R
BARTOW         PTSUNNY   81  75  83 E5        30.08R
OKEECHOBEE     SUNNY     84  75  74 SE10      30.07R

$$
FLZ041-047-054-059-064-141-147-311600-
EAST CENTRAL FLORIDA

CITY           SKY/WX    TMP DP  RH WIND       PRES   REMARKS
ORMOND BEACH   PTSUNNY   82  75  78 SW7       30.08R
DAYTONA BEACH  CLOUDY    83  76  79 SW8       30.08R
DELAND           N/A     82  75  78 S5        30.09R
NEW SMYRNA BEA PTSUNNY   84  75  74 SW6       30.08R
TITUSVILLE     PTSUNNY   84  75  74 S9        30.08R
CAPE CANAVERAL SUNNY     86  79  79 S12       30.06R HAZE    HX 100
PATRICK AFB    MOSUNNY   86  77  75 S14       30.07R HX  97
MELBOURNE      MOSUNNY   87  74  64 SE8       30.06R HX  95
VERO BEACH     MOSUNNY   88  74  63 SE9       30.06  HX  96
FT PIERCE      MOSUNNY   88  76  67 SE14      30.06R HX  99
STUART         PTSUNNY   84  75  74 SE8       30.07R

STATION/POSITION SKY/WX   TEMP    WIND        PRES    WAVE   SWELL
                          AIR SEA DIR/SP/G            HT/PER HT/PER
                          (F)     (DEG/KT/KT) (MB)    (FT/S) (FT/S)
28.5N   80.2W              83 83  170/ 12/ 14 1018.1R
28.9N   78.5W              84 85  150/ 10/ 14 1018.6R
TRIDENT PIER     NOT AVBL

$$
FLZ050-056-061-142-242-148-248-149-249-151-251-155-255-
160-260-311600-
WEST CENTRAL FLORIDA

CITY           SKY/WX    TMP DP  RH WIND       PRES   REMARKS
CRYSTAL RIVER  PTSUNNY   81  77  89 CALM      30.06S
INVERNESS      FAIR      81  77  89 CALM      30.08R
BROOKSVILLE    CLOUDY    81  76  84 SE3       30.07R
CLEARWATER     PTSUNNY   83  77  82 SE8       30.05R
TAMPA INTL     PTSUNNY   84  76  76 VRB7      30.06R
TAMPA EXEC     PTSUNNY   86  77  74 SE5       30.06R HX  97
PLANT CITY     PTSUNNY   82  79  89 SE6       30.08R
MACDILL AFB    PTSUNNY   83  80  89 SE8       30.05R HX  95
PETER O KNIGHT PTSUNNY   86  79  79 SE8       30.05S HX  99
ST PETERSBURG  PTSUNNY   83  76  79 SE8       30.03R
SARASOTA       MOSUNNY   87  76  69 SE14      30.02R HX  97
VENICE         FAIR      82  77  83 SE9       30.05R

STATION/POSITION SKY/WX   TEMP    WIND        PRES    WAVE   SWELL
                          AIR SEA DIR/SP/G            HT/PER HT/PER
                          (F)     (DEG/KT/KT) (MB)    (FT/S) (FT/S)
CEDAR KEY                  81     110/  8/  9 1018.2R
28.5N   84.5W              85 86   50/  6/  6 1017.1R   1/ 6   2/ 6
CLEARWATER BEACH NOT AVBL
MIDDLE TAMPA BAY NOT AVBL
VENICE                     82 86  130/ 10/ 13 1016.7R

$$
FLZ066-069-070-075>078-162-262-165-265-311600-
SOUTHWEST FLORIDA AND KEYS

CITY           SKY/WX    TMP DP  RH WIND       PRES   REMARKS
PUNTA GORDA    CLOUDY    81  77  88 SE6       30.06R
FT MYERS       CLOUDY    84  74  71 SE12      30.04R
SOUTHWEST INTL PTSUNNY   86  75  69 S14       30.05R HX  95
NAPLES         PTSUNNY   82  74  76 SW18      30.04R
MARCO ISLAND     N/A     86  73  66 SE14      30.04
MARATHON       MOSUNNY   88  77  69 S10       30.04R HX 100
KEY WEST NAS   PTSUNNY   88  74  63 S12       30.03R HX  96
KEY WEST INTL  MOSUNNY   87  75  67 S13       30.03S HX  96

STATION/POSITION SKY/WX   TEMP    WIND        PRES    WAVE   SWELL
                          AIR SEA DIR/SP/G            HT/PER HT/PER
                          (F)     (DEG/KT/KT) (MB)    (FT/S) (FT/S)
VENICE                     82 86  130/ 10/ 13 1016.7R
NAPLES           NOT AVBL
26.0N   85.6W              85 86  350/  6/  8 1015.9R   2/ 4   2/ 4
DRY TORTUGAS                                    N/A
SAND KEY                   84     170/ 16     1016.9R
LONG KEY                   85 84  170/ 12/ 13 1018.1R
MOLASSES REEF              84 87  160/ 14/ 16 1017.6R

$$
FLZ067-068-071>074-168-172>174-311600-
SOUTHEAST FLORIDA

CITY           SKY/WX    TMP DP  RH WIND       PRES   REMARKS
W PALM BEACH   MOSUNNY   86  75  69 S14       30.06R HX  95
FT LAUDER-EXEC MOSUNNY   87  75  67 SE15      30.05R HX  96
FT LAUDERDALE  PTSUNNY   86  76  71 SE17G24   30.05R HX  96
POMPANO BEACH  MOSUNNY   87  76  69 SE14      30.05R HX  97
PEMBROKE PINES SUNNY     88  75  65 SE13      30.06R HX  97
OPA LOCKA      MOSUNNY   89  75  63 SE14      30.06R HX  99
MIAMI          PTSUNNY   87  77  72 SE9G20    30.05R HX  99
WEST KENDALL   PTSUNNY   87  77  72 SE10        N/A  HX  99
HOMESTEAD      MOSUNNY   86  76  71 SE12      30.05R HX  96

STATION/POSITION SKY/WX   TEMP    WIND        PRES    WAVE   SWELL
                          AIR SEA DIR/SP/G            HT/PER HT/PER
                          (F)     (DEG/KT/KT) (MB)    (FT/S) (FT/S)
SETTLEMENT POINT           86     160/ 11/ 13 1019.1R

$$



USA.gov is the U.S. government's official web portal to all federal, state and local government web resources and services.